Weather History for Aiken, SC

Change the Weather History Date:

Tuesday, July 2, 2013

  Actual Average Record
Temperature  
Mean Temperature 74 °F -  
Max Temperature 78 °F 92 °F 96 °F (2012)
Min Temperature 71 °F 67 °F 68 °F (2011)
Cooling Degree Days 10    
Growing Degree Days 24 (Base 50)    
Moisture  
Dew Point 73 °F    
Average Humidity 94    
Maximum Humidity 100    
Minimum Humidity 69    
Precipitation  
Precipitation 0.00 in - - ()
Sea Level Pressure  
Sea Level Pressure 30.10 in    
Wind  
Wind Speed 8 mph (SSE)    
Max Wind Speed 14 mph    
Max Gust Speed 20 mph    
Visibility 10 miles    
Events Rain    
Averages and records for this station are not official NWS values.
T = Trace of Precipitation, MM = Missing Value Source: NWS Daily Summary

Daily Weather History Graph

Daily Weather History Graph

Search for Another Location

Airport:

Trip Planner

Search our weather history database for the weather conditions in past years. The results will help you decide how hot, cold, wet, or windy it might be!

Date:

Astronomy

Jul. 02, 2013 Rise Set
Actual Time 6:20 AM EDT 8:40 PM EDT
Civil Twilight 5:51 AM EDT 9:09 PM EDT
Nautical Twilight 5:16 AM EDT 9:45 PM EDT
Astronomical Twilight 4:37 AM EDT 10:23 PM EDT
Moon 2:14 AM EDT (7/2) 4:00 PM EDT (7/2)
Length of Visible Light 15h 18m
Length of Day
14h 20m
Waning Crescent, 26% of the Moon is Illuminated
Jul 2
Waning Crescent
Jul 8
New
Jul 15
First Quarter
Jul 22
Full
Jul 29
Last Quarter

Hourly Weather History & Observations

Time (EDT) Temp. Dew Point Humidity Pressure Visibility Wind Dir Wind Speed Gust Speed Precip Events Conditions
12:15 AM 73.4 °F 73.4 °F 100% 30.03 in 10.0 mi South 5.8 mph - N/A   Overcast
12:35 AM 73.4 °F 73.4 °F 100% 30.03 in 10.0 mi South 9.2 mph - N/A   Overcast
12:55 AM 73.4 °F 73.4 °F 100% 30.03 in 10.0 mi South 11.5 mph - N/A   Overcast
1:15 AM 73.4 °F 73.4 °F 100% 30.03 in 10.0 mi SSE 9.2 mph - N/A   Mostly Cloudy
1:35 AM 73.4 °F 73.4 °F 100% 30.03 in 10.0 mi South 9.2 mph - N/A   Mostly Cloudy
1:55 AM 73.4 °F 73.4 °F 100% 30.03 in 10.0 mi SSE 8.1 mph - N/A   Overcast
2:15 AM 73.4 °F 73.4 °F 100% 30.03 in 10.0 mi South 9.2 mph - N/A   Overcast
2:35 AM 73.4 °F 73.4 °F 100% 30.03 in 10.0 mi South 5.8 mph 9.2 mph N/A   Overcast
2:55 AM 73.4 °F 73.4 °F 100% 30.03 in 10.0 mi South 8.1 mph - N/A   Overcast
3:15 AM 73.4 °F 73.4 °F 100% 30.03 in 10.0 mi South 8.1 mph - N/A   Overcast
3:35 AM 73.4 °F 73.4 °F 100% 30.03 in 10.0 mi SSE 9.2 mph - N/A   Overcast
3:55 AM 73.4 °F 73.4 °F 100% 30.03 in 10.0 mi SSE 6.9 mph - N/A   Overcast
4:15 AM 71.6 °F 71.6 °F 100% 30.04 in 10.0 mi SSE 4.6 mph - N/A   Overcast
4:35 AM 71.6 °F 71.6 °F 100% 30.04 in 10.0 mi SSE 5.8 mph - N/A   Overcast
4:55 AM 71.6 °F 71.6 °F 100% 30.04 in 10.0 mi South 4.6 mph - N/A   Mostly Cloudy
5:15 AM 71.6 °F 71.6 °F 100% 30.04 in 10.0 mi South 6.9 mph - N/A   Overcast
5:35 AM 71.6 °F 71.6 °F 100% 30.05 in 10.0 mi South 5.8 mph - N/A   Overcast
5:55 AM 71.6 °F 71.6 °F 100% 30.05 in 10.0 mi SSE 5.8 mph - N/A   Overcast
6:15 AM 71.6 °F 71.6 °F 100% 30.06 in 10.0 mi SSE 6.9 mph - N/A   Overcast
6:35 AM 71.6 °F 71.6 °F 100% 30.08 in 10.0 mi SSE 4.6 mph - N/A Rain Rain
6:55 AM 71.6 °F 71.6 °F 100% 30.08 in 10.0 mi SE 5.8 mph - N/A   Overcast
7:15 AM 71.6 °F 71.6 °F 100% 30.08 in 10.0 mi SSE 5.8 mph - N/A   Overcast
7:35 AM 71.6 °F 71.6 °F 100% 30.08 in 10.0 mi SSE 5.8 mph - N/A   Overcast
7:55 AM 71.6 °F 71.6 °F 100% 30.09 in 10.0 mi SSE 8.1 mph - N/A   Overcast
8:15 AM 71.6 °F 71.6 °F 100% 30.10 in 10.0 mi SSE 6.9 mph - N/A   Overcast
8:35 AM 73.4 °F 73.4 °F 100% 30.10 in 10.0 mi South 6.9 mph - N/A   Overcast
8:55 AM 73.4 °F 73.4 °F 100% 30.11 in 10.0 mi South 6.9 mph - N/A   Overcast
9:15 AM 73.4 °F 73.4 °F 100% 30.11 in 7.0 mi South 6.9 mph - N/A Rain Rain
9:35 AM 73.4 °F 73.4 °F 100% 30.12 in 10.0 mi SSE 6.9 mph - N/A   Overcast
10:15 AM 73.4 °F 73.4 °F 100% 30.12 in 10.0 mi South 8.1 mph - N/A   Overcast
10:35 AM 77.0 °F 73.4 °F 89% 30.11 in 10.0 mi South 9.2 mph - N/A   Overcast
10:55 AM 77.0 °F 71.6 °F 83% 30.11 in 10.0 mi SSE 13.8 mph - N/A   Overcast
11:15 AM 77.0 °F 69.8 °F 78% 30.11 in 10.0 mi South 12.7 mph 18.4 mph N/A   Overcast
11:35 AM 78.8 °F 69.8 °F 74% 30.11 in 10.0 mi South 11.5 mph - N/A   Overcast
11:55 AM 78.8 °F 68.0 °F 69% 30.12 in 10.0 mi South 12.7 mph 19.6 mph N/A   Overcast
12:15 PM 78.8 °F 69.8 °F 74% 30.12 in 10.0 mi SSE 9.2 mph - N/A   Mostly Cloudy
12:35 PM 77.0 °F 69.8 °F 78% 30.13 in 10.0 mi South 10.4 mph - N/A   Overcast
12:55 PM 77.0 °F 69.8 °F 78% 30.12 in 10.0 mi SSE 10.4 mph 17.3 mph N/A   Mostly Cloudy
1:15 PM 75.2 °F 71.6 °F 89% 30.12 in 10.0 mi SSE 11.5 mph - N/A Rain Light Rain
1:35 PM 75.2 °F 73.4 °F 94% 30.12 in 10.0 mi SSE 9.2 mph - N/A   Mostly Cloudy
1:55 PM 77.0 °F 71.6 °F 83% 30.12 in 10.0 mi South 10.4 mph - N/A   Mostly Cloudy
2:15 PM 77.0 °F 69.8 °F 78% 30.11 in 10.0 mi SSE 10.4 mph - N/A   Scattered Clouds
2:35 PM 78.8 °F 69.8 °F 74% 30.11 in 10.0 mi SSE 12.7 mph 18.4 mph N/A   Mostly Cloudy
2:55 PM 77.0 °F 69.8 °F 78% 30.11 in 10.0 mi SSE 9.2 mph - N/A   Overcast
3:15 PM 77.0 °F 71.6 °F 83% 30.12 in 10.0 mi SSE 10.4 mph - N/A   Mostly Cloudy
3:35 PM 77.0 °F 73.4 °F 89% 30.12 in 10.0 mi SE 8.1 mph - N/A   Mostly Cloudy
3:55 PM 75.2 °F 73.4 °F 94% 30.12 in 10.0 mi SE 9.2 mph - N/A   Mostly Cloudy
4:15 PM 75.2 °F 73.4 °F 94% 30.11 in 10.0 mi SSE 5.8 mph - N/A   Overcast
4:35 PM 75.2 °F 73.4 °F 94% 30.11 in 10.0 mi ESE 9.2 mph - N/A   Overcast
4:55 PM 77.0 °F 73.4 °F 89% 30.11 in 10.0 mi ESE 10.4 mph - N/A   Overcast
5:15 PM 75.2 °F 73.4 °F 94% 30.11 in 10.0 mi SE 9.2 mph - N/A   Overcast
5:35 PM 77.0 °F 71.6 °F 83% 30.11 in 10.0 mi SE 9.2 mph - N/A   Overcast
5:55 PM 77.0 °F 73.4 °F 89% 30.10 in 10.0 mi ESE 5.8 mph - N/A   Mostly Cloudy
6:15 PM 77.0 °F 73.4 °F 89% 30.10 in 10.0 mi ESE 9.2 mph - N/A   Overcast
6:35 PM 77.0 °F 73.4 °F 89% 30.11 in 10.0 mi ESE 5.8 mph - N/A   Mostly Cloudy
6:55 PM 77.0 °F 73.4 °F 89% 30.11 in 10.0 mi SE 9.2 mph - N/A   Mostly Cloudy
7:15 PM 77.0 °F 73.4 °F 89% 30.12 in 10.0 mi SE 6.9 mph - N/A   Mostly Cloudy
7:35 PM 75.2 °F 75.2 °F 100% 30.13 in 10.0 mi SE 6.9 mph - N/A   Mostly Cloudy
7:55 PM 75.2 °F 75.2 °F 100% 30.14 in 10.0 mi SE 5.8 mph - N/A   Mostly Cloudy
8:15 PM 75.2 °F 75.2 °F 100% 30.13 in 10.0 mi SE 5.8 mph - N/A   Overcast
8:35 PM 73.4 °F 73.4 °F 100% 30.13 in 10.0 mi SE 3.5 mph - N/A   Scattered Clouds
8:55 PM 73.4 °F 73.4 °F 100% 30.14 in 10.0 mi SE 4.6 mph - N/A   Mostly Cloudy
9:15 PM 73.4 °F 73.4 °F 100% 30.15 in 10.0 mi SE 3.5 mph - N/A   Overcast
9:35 PM 73.4 °F 73.4 °F 100% 30.15 in 10.0 mi SE 5.8 mph - N/A   Overcast
9:55 PM 73.4 °F 73.4 °F 100% 30.16 in 10.0 mi SE 4.6 mph - N/A   Overcast
10:15 PM 75.2 °F 75.2 °F 100% 30.16 in 10.0 mi SE 4.6 mph - N/A   Overcast
10:35 PM 75.2 °F 75.2 °F 100% 30.17 in 10.0 mi SE 3.5 mph - N/A   Overcast
10:55 PM 75.2 °F 75.2 °F 100% 30.17 in 10.0 mi SSE 5.8 mph - N/A   Mostly Cloudy
11:15 PM 73.4 °F 73.4 °F 100% 30.18 in 10.0 mi SSE 8.1 mph - N/A Rain Light Rain
11:35 PM 73.4 °F 73.4 °F 100% 30.17 in 10.0 mi South 9.2 mph - N/A   Light Drizzle
11:55 PM 73.4 °F 73.4 °F 100% 30.16 in 10.0 mi South 6.9 mph - N/A   Scattered Clouds